Volver al catálogo

STARLINK-36708

ActivoComunicacionesSSO
NORAD 67713·PAYLOAD·🇺🇸 United States

Lanzado Feb 7, 2026 desde Vandenberg Space Force Base

Loading…

Próximos Pases (próximas 24 horas)

TLE

ActualizadoSource: CelesTrak SupGP

Época: Sep 14, 2026, 23:10 UTC

1 67713C 26025W   26257.96576389 -.00026015  00000+0 -80725-3 0  2571
2 67713  97.2857   7.1127 0001126  96.9183 238.8583 15.33465029    14

Sigue STARLINK-36708 en tiempo real con AllMySat

Download on the App Store